Home   Weather   Darwin   Past weeks

Flag for Australia Past Weather in Darwin, Northern Territory, Australia — Yesterday and Last 2 Weeks

Now
90 °F

Scattered showers. Passing clouds.


Feels Like: 100 °F
Forecast: 81 / 92 °F
Wind: 13 mph from Northwest

Location: Darwin Airport

Current Time: Sep 30, 2016 at 2:38:52 PM

Latest Report: Sep 30, 2016 at 1:30 PM


Visibility: N/A

Pressure: 29.77 "Hg

Humidity: 63%

Dew Point: 75 °F

Location of DarwinLocation

Past Weather in Darwin — Graph

°F

Darwin Temperature Yesterday

Maximum temperature yesterday: 93 °F (at 1:30 PM)
Minimum temperature yesterday: 79 °F (at 2:30 AM)
Average temperature yesterday: 85 °F

High & Low Weather Summary for the Past Weeks

 TemperatureHumidityPressure
High93 °F (Sep 22, 1:30 PM)100% (Sep 18, 9:30 PM)29.95 "Hg (Sep 18, 9:30 PM)
Low73 °F (Sep 18, 2:00 PM)34% (Sep 22, 2:30 PM)29.71 "Hg (Sep 24, 3:30 PM)
Average84 °F74%29.82 "Hg
* Reported Sep 15 12:30 PM — Sep 30 1:00 PM, Darwin, Weather by CustomWeather, © 2016

Note: Actual official high and low records may vary slightly from our data, if they occured in-between our weather recording intervals... More about our weather records

Advertising

Darwin Weather History for the Previous 24 Hours

Scroll right to see more
 ConditionsComfort  
Time TempWeatherWind HumidityBarometerVisibility
1:00 PM
Fri, Sep 30
91 °FScattered showers. Passing clouds.12 mph63%29.77 "HgN/A
12:30 PM90 °FPassing clouds.10 mph63%29.80 "HgN/A
12:00 PM88 °FScattered showers. Scattered clouds.9 mph66%29.83 "HgN/A
11:30 AM88 °FScattered clouds.9 mph70%29.83 "HgN/A
11:00 AM90 °FPassing clouds.8 mph67%29.83 "HgN/A
10:30 AM86 °FPassing clouds.5 mph79%29.83 "HgN/A
10:00 AM84 °FScattered showers. Partly sunny.No wind84%29.86 "HgN/A
9:30 AM82 °FScattered showers. Partly sunny.5 mph89%29.86 "HgN/A
9:00 AM84 °FSprinkles. Partly sunny.5 mph79%29.83 "HgN/A
8:30 AM86 °FScattered clouds.7 mph75%29.83 "HgN/A
8:00 AM84 °FScattered clouds.2 mph79%29.83 "HgN/A
7:30 AM81 °FScattered clouds.No wind94%29.80 "HgN/A
7:00 AM79 °FPassing clouds.No wind94%29.80 "HgN/A
6:30 AM79 °FPassing clouds.1 mph94%29.80 "HgN/A
5:30 AM79 °FPassing clouds.1 mph94%29.77 "HgN/A
5:00 AM81 °FClear.5 mph89%29.77 "HgN/A
4:30 AM81 °FClear.7 mph89%29.74 "HgN/A
4:00 AM81 °FClear.7 mph89%29.74 "HgN/A
3:30 AM81 °FClear.6 mph84%29.74 "HgN/A
3:00 AM82 °FClear.8 mph84%29.74 "HgN/A
2:30 AM82 °FPassing clouds.8 mph84%29.77 "HgN/A
2:00 AM82 °FPassing clouds.7 mph84%29.77 "HgN/A
1:30 AM82 °FPassing clouds.8 mph84%29.77 "HgN/A
1:00 AM82 °FPassing clouds.9 mph84%29.80 "HgN/A
12:30 AM82 °FPassing clouds.8 mph84%29.80 "HgN/A
12:00 AM82 °FPassing clouds.10 mph84%29.80 "HgN/A
11:30 PM
Thu, Sep 29
82 °FPassing clouds.8 mph84%29.80 "HgN/A
11:00 PM84 °FPassing clouds.10 mph79%29.80 "HgN/A
10:30 PM84 °FPassing clouds.9 mph79%29.80 "HgN/A
10:00 PM84 °FClear.8 mph79%29.80 "Hg10 mi
9:30 PM84 °FPassing clouds.8 mph74%29.80 "HgN/A
9:00 PM84 °FClear.8 mph74%29.80 "Hg10 mi
8:30 PM84 °FClear.10 mph74%29.77 "Hg10 mi
8:00 PM84 °FClear.12 mph74%29.77 "Hg10 mi
7:30 PM84 °FClear.13 mph79%29.74 "Hg10 mi
7:00 PM84 °FPassing clouds.13 mph79%29.74 "HgN/A
6:30 PM84 °FPassing clouds.13 mph79%29.74 "HgN/A
6:00 PM84 °FPassing clouds.7 mph70%29.71 "HgN/A
5:30 PM81 °FScattered showers. Passing clouds.6 mph74%29.74 "HgN/A
5:27 PM81 °FScattered showers. Broken clouds.9 mph74%29.71 "HgN/A
4:30 PM91 °FScattered showers. Broken clouds.13 mph56%29.71 "HgN/A
4:00 PM90 °FPartly sunny.17 mph52%29.71 "HgN/A
3:30 PM91 °FPartly sunny.15 mph44%29.71 "HgN/A
3:00 PM88 °FPartly sunny.16 mph55%29.71 "HgN/A
2:30 PM88 °FPartly sunny.18 mph59%29.71 "HgN/A
2:00 PM90 °FPartly sunny.20 mph63%29.74 "HgN/A
Weather by CustomWeather, © 2016

See weather overviewHow to use our weather pages